Manistique, MI

2:38 AM EDT on October 17, 2017 (GMT -0400)
Schoolcraft County

Weather History for KISQ - October, 2012

Change the Weather History Date:

Tuesday, October 9, 2012

  Actual Average Record
Temperature  
Mean Temperature 47 °F -  
Max Temperature 55 °F 54 °F 69 °F (1960)
Min Temperature 39 °F 37 °F 24 °F (1989)
Degree Days  
Heating Degree Days 18    
Moisture  
Dew Point 43 °F    
Average Humidity 84    
Maximum Humidity 93    
Minimum Humidity 58    
Precipitation  
Precipitation 0.00 in - - ()
Sea Level Pressure  
Sea Level Pressure 29.73 in    
Wind  
Wind Speed 17 mph (SW)    
Max Wind Speed 25 mph    
Max Gust Speed 34 mph    
Visibility 9 miles    
Events Rain    
Averages and records for this station are not official NWS values.
T = Trace of Precipitation, MM = Missing Value Source: NWS Daily Summary

Daily Weather History Graph

Daily Weather History Graph

Search for Another Location

Airport or City:

Trip Planner

Search our weather history database for the weather conditions in past years. The results will help you decide how hot, cold, wet, or windy it might be!

Date:

Astronomy

Oct. 09, 2012 Rise Set
Actual Time 7:54 AM EDT 7:08 PM EDT
Civil Twilight 7:24 AM EDT 7:38 PM EDT
Nautical Twilight 6:49 AM EDT 8:13 PM EDT
Astronomical Twilight 6:14 AM EDT 8:47 PM EDT
Moon 1:11 AM EDT (10/9) 3:52 PM EDT (10/9)
Length of Visible Light 12h 14m
Length of Day
11h 14m
Last Quarter, 37% of the Moon is Illuminated
Oct 9
Last Quarter
Oct 15
New
Oct 21
First Quarter
Oct 29
Full
Nov 6
Last Quarter

Hourly Weather History & Observations

Time (EDT) Temp. Windchill Dew Point Humidity Pressure Visibility Wind Dir Wind Speed Gust Speed Precip Events Conditions
12:14 AM 51.8 °F - 42.8 °F 71% 29.80 in 10.0 mi South 18.4 mph 29.9 mph N/A Rain Rain
12:35 AM 53.6 °F - 42.8 °F 67% 29.79 in 10.0 mi SSW 21.9 mph 29.9 mph N/A   Overcast
1:14 AM 53.6 °F - 42.8 °F 67% 29.77 in 10.0 mi South 23.0 mph 33.4 mph N/A   Overcast
1:35 AM 55.4 °F - 41.0 °F 58% 29.76 in 10.0 mi SSW 24.2 mph 32.2 mph N/A   Overcast
1:55 AM 55.4 °F - 41.0 °F 58% 29.76 in 10.0 mi South 23.0 mph 31.1 mph N/A   Overcast
2:14 AM 55.4 °F - 42.8 °F 63% 29.76 in 10.0 mi SSW 25.3 mph 34.5 mph N/A   Overcast
2:54 AM 53.6 °F - 41.0 °F 62% 29.76 in 10.0 mi SSW 21.9 mph 29.9 mph N/A   Overcast
3:15 AM 53.6 °F - 39.2 °F 58% 29.75 in 10.0 mi South 23.0 mph 34.5 mph N/A   Mostly Cloudy
3:55 AM 53.6 °F - 41.0 °F 62% 29.74 in 10.0 mi SSW 16.1 mph 25.3 mph N/A   Mostly Cloudy
4:14 AM 53.6 °F - 42.8 °F 67% 29.74 in 10.0 mi SSW 18.4 mph 26.5 mph N/A   Overcast
4:35 AM 53.6 °F - 42.8 °F 67% 29.74 in 10.0 mi SSW 19.6 mph 27.6 mph N/A   Overcast
4:55 AM 51.8 °F - 42.8 °F 71% 29.74 in 10.0 mi SSW 17.3 mph 28.8 mph N/A Rain Rain
5:14 AM 51.8 °F - 42.8 °F 71% 29.74 in 10.0 mi SSW 16.1 mph 27.6 mph N/A Rain Rain
5:35 AM 51.8 °F - 44.6 °F 76% 29.74 in 10.0 mi SSW 16.1 mph 26.5 mph N/A Rain Light Rain
5:55 AM 50.0 °F - 44.6 °F 82% 29.74 in 10.0 mi SSW 20.7 mph 31.1 mph N/A Rain Rain
6:14 AM 50.0 °F - 44.6 °F 82% 29.75 in 10.0 mi SSW 18.4 mph 29.9 mph N/A Rain Rain
6:35 AM 48.2 °F - 44.6 °F 87% 29.75 in 10.0 mi SSW 21.9 mph 32.2 mph N/A Rain Light Rain
6:55 AM 48.2 °F - 44.6 °F 87% 29.75 in 10.0 mi SSW 19.6 mph 32.2 mph N/A Rain Light Rain
7:15 AM 48.2 °F - 44.6 °F 87% 29.75 in 10.0 mi SSW 19.6 mph 27.6 mph N/A Rain Light Rain
7:35 AM 48.2 °F - 44.6 °F 87% 29.75 in 10.0 mi SSW 19.6 mph 25.3 mph N/A Rain Light Rain
7:54 AM 48.2 °F - 44.6 °F 87% 29.75 in 10.0 mi SSW 16.1 mph 23.0 mph N/A Rain Light Rain
8:15 AM 48.2 °F - 44.6 °F 87% 29.76 in 10.0 mi SSW 15.0 mph 24.2 mph N/A Rain Light Rain
8:35 AM 48.2 °F - 44.6 °F 87% 29.76 in 10.0 mi SSW 19.6 mph 25.3 mph N/A   Light Drizzle
8:54 AM 48.2 °F - 44.6 °F 87% 29.77 in 10.0 mi SSW 18.4 mph 26.5 mph N/A   Overcast
9:15 AM 48.2 °F - 44.6 °F 87% 29.77 in 10.0 mi SSW 17.3 mph 25.3 mph N/A   Mostly Cloudy
9:35 AM 48.2 °F - 44.6 °F 87% 29.77 in 10.0 mi SW 12.7 mph 21.9 mph N/A   Mostly Cloudy
9:54 AM 48.2 °F - 44.6 °F 87% 29.77 in 10.0 mi SW 12.7 mph 21.9 mph N/A   Mostly Cloudy
10:15 AM 48.2 °F - 44.6 °F 87% 29.77 in 10.0 mi SSW 15.0 mph 19.6 mph N/A   Scattered Clouds
10:34 AM 48.2 °F - 44.6 °F 87% 29.77 in 10.0 mi SW 15.0 mph 21.9 mph N/A   Scattered Clouds
10:55 AM 48.2 °F - 44.6 °F 87% 29.77 in 10.0 mi SW 15.0 mph 19.6 mph N/A   Scattered Clouds
11:14 AM 48.2 °F - 44.6 °F 87% 29.77 in 10.0 mi SSW 12.7 mph 20.7 mph N/A   Scattered Clouds
11:35 AM 48.2 °F - 44.6 °F 87% 29.77 in 10.0 mi SSW 16.1 mph 21.9 mph N/A Rain Light Rain
11:55 AM 48.2 °F - 44.6 °F 87% 29.77 in 10.0 mi SSW 15.0 mph 24.2 mph N/A Rain Light Rain
12:14 PM 48.2 °F - 44.6 °F 87% 29.76 in 10.0 mi SSW 17.3 mph 25.3 mph N/A   Light Drizzle
12:35 PM 48.2 °F - 44.6 °F 87% 29.75 in 10.0 mi SSW 13.8 mph 19.6 mph N/A Rain Light Rain
12:55 PM 48.2 °F - 44.6 °F 87% 29.75 in 10.0 mi South 12.7 mph - N/A   Scattered Clouds
1:14 PM 48.2 °F - 44.6 °F 87% 29.75 in 10.0 mi South 11.5 mph 20.7 mph N/A   Scattered Clouds
1:35 PM 48.2 °F - 44.6 °F 87% 29.73 in 10.0 mi South 12.7 mph 20.7 mph N/A   Overcast
1:54 PM 48.2 °F - 46.4 °F 93% 29.73 in 10.0 mi South 11.5 mph - N/A Rain Light Rain
2:15 PM 48.2 °F - 44.6 °F 87% 29.72 in 10.0 mi South 13.8 mph - N/A Rain Light Rain
2:35 PM 48.2 °F - 46.4 °F 93% 29.71 in 10.0 mi South 11.5 mph - N/A   Light Drizzle
2:54 PM 48.2 °F - 46.4 °F 93% 29.70 in 10.0 mi South 9.2 mph - N/A   Light Drizzle
3:15 PM 48.2 °F - 46.4 °F 93% 29.68 in 10.0 mi SSW 8.1 mph - N/A   Drizzle
3:35 PM 48.2 °F - 46.4 °F 93% 29.68 in 4.0 mi SSW 8.1 mph - N/A Rain Rain
3:54 PM 50.0 °F - 46.4 °F 87% 29.67 in 7.0 mi South 12.7 mph 17.3 mph N/A Rain Heavy Rain
4:15 PM 48.2 °F - 44.6 °F 87% 29.68 in 5.0 mi SW 13.8 mph 23.0 mph N/A Rain Rain
4:34 PM 46.4 °F 39.8 °F 44.6 °F 93% 29.67 in 5.0 mi SW 16.1 mph 24.2 mph N/A Rain Light Rain
4:55 PM 46.4 °F 40.1 °F 44.6 °F 93% 29.67 in 7.0 mi SSW 15.0 mph 24.2 mph N/A Rain Light Rain
5:14 PM 46.4 °F 40.1 °F 42.8 °F 87% 29.66 in 10.0 mi SSW 15.0 mph 28.8 mph N/A Rain Rain
5:35 PM 46.4 °F 39.0 °F 44.6 °F 93% 29.66 in 7.0 mi SSW 19.6 mph 26.5 mph N/A   Drizzle
5:55 PM 46.4 °F 39.8 °F 44.6 °F 93% 29.65 in 10.0 mi SSW 16.1 mph 26.5 mph N/A Rain Light Rain
6:14 PM 46.4 °F 40.4 °F 44.6 °F 93% 29.65 in 7.0 mi SSW 13.8 mph 24.2 mph N/A Rain Light Rain
6:35 PM 46.4 °F 40.7 °F 44.6 °F 93% 29.65 in 5.0 mi SSW 12.7 mph 19.6 mph N/A Rain Rain
6:55 PM 46.4 °F 40.7 °F 44.6 °F 93% 29.65 in 5.0 mi SSW 12.7 mph 19.6 mph N/A Rain Rain
7:14 PM 46.4 °F 38.7 °F 42.8 °F 87% 29.67 in 10.0 mi WNW 20.7 mph 31.1 mph N/A Rain Light Rain
7:35 PM 44.6 °F 38.1 °F 39.2 °F 81% 29.68 in 10.0 mi West 13.8 mph - N/A   Drizzle
7:54 PM 42.8 °F 36.2 °F 39.2 °F 87% 29.70 in 10.0 mi West 12.7 mph 21.9 mph N/A   Light Drizzle
8:15 PM 42.8 °F 36.2 °F 37.4 °F 81% 29.72 in 10.0 mi West 12.7 mph - N/A   Drizzle
8:35 PM 41.0 °F 34.3 °F 37.4 °F 87% 29.72 in 10.0 mi WNW 11.5 mph 20.7 mph N/A   Drizzle
8:54 PM 39.2 °F 34.2 °F 37.4 °F 93% 29.71 in 10.0 mi WNW 6.9 mph - N/A   Drizzle
9:15 PM 39.2 °F 35.9 °F 37.4 °F 93% 29.72 in 10.0 mi West 4.6 mph - N/A   Overcast
9:34 PM 39.2 °F 37.0 °F 37.4 °F 93% 29.72 in 10.0 mi West 3.5 mph - N/A   Mostly Cloudy
9:55 PM 39.2 °F 35.0 °F 37.4 °F 93% 29.72 in 10.0 mi West 5.8 mph - N/A   Scattered Clouds
10:15 PM 39.2 °F 35.9 °F 35.6 °F 87% 29.71 in 10.0 mi WSW 4.6 mph - N/A   Clear
10:34 PM 39.2 °F 37.0 °F 37.4 °F 93% 29.72 in 10.0 mi SW 3.5 mph - N/A   Clear
10:55 PM 39.2 °F 35.0 °F 37.4 °F 93% 29.72 in 10.0 mi SW 5.8 mph - N/A   Clear
11:14 PM 39.2 °F 37.0 °F 37.4 °F 93% 29.72 in 10.0 mi WSW 3.5 mph - N/A   Scattered Clouds
11:35 PM 39.2 °F 34.2 °F 37.4 °F 93% 29.72 in 10.0 mi West 6.9 mph - N/A   Scattered Clouds
11:55 PM 39.2 °F 35.0 °F 37.4 °F 93% 29.71 in 10.0 mi West 5.8 mph - N/A   Scattered Clouds